FW4702 Weather Reports


Display with metric or nautical units.
time (UTC)temp
F
wind
direction
speed
MPH
gust
MPH
rain 1hr
in
rain 24hr
in
rain mn
in
humidity
%
barometer
mb
20260901052058 73 0 0.0 0.0 0.00 0.00 0.00 94 1019.5
20260901051601 73 0 0.0 0.0 0.00 0.00 0.00 94 1019.5
20260901051056 73 0 0.0 0.0 0.00 0.00 0.00 94 1019.5
20260901050557 73 0 0.0 0.0 0.00 0.00 0.00 94 1019.4
20260901050105 73 0 0.0 0.0 0.00 0.00 0.00 94 1019.4
20260901045556 73 0 0.0 0.0 0.00 0.00 0.00 94 1019.5
20260901045058 73 0 0.0 0.0 0.00 0.00 0.00 94 1019.6
20260901044623 73 0 0.0 0.0 0.00 0.00 0.00 94 1019.4
20260901044057 73 0 0.0 0.0 0.00 0.00 0.00 94 1019.5
20260901043557 73 0 0.0 0.0 0.00 0.00 0.00 94 1019.5
20260901043106 73 0 0.0 0.0 0.00 0.00 0.00 94 1019.6
20260901042600 74 0 0.0 0.0 0.00 0.00 0.00 93 1019.5
20260901042056 74 0 0.0 0.0 0.00 0.00 0.00 93 1019.5
20260901041602 74 0 0.0 0.0 0.00 0.00 0.00 93 1019.5
20260901041056 73 0 0.0 0.0 0.00 0.00 0.00 93 1019.4
20260901040556 74 0 0.0 0.0 0.00 0.00 0.00 93 1019.4
20260901040108 74 0 0.0 1.0 0.00 0.00 0.00 93 1019.5
20260901035600 74 0 0.0 1.0 0.00 0.00 0.00 92 1019.4
20260901035100 74 0 0.0 1.0 0.00 0.00 0.00 93 1019.4
20260901034558 74 0 0.0 0.0 0.00 0.00 0.00 93 1019.5
20260901034056 74 0 0.0 0.0 0.00 0.00 0.00 93 1019.4
20260901033557 74 0 0.0 0.0 0.00 0.00 0.00 92 1019.6
20260901033105 74 0 0.0 0.0 0.00 0.00 0.00 93 1019.7
20260901032600 74 0 0.0 0.0 0.00 0.00 0.00 92 1019.7
20260901032057 74 0 0.0 0.0 0.00 0.00 0.00 93 1019.6
20260901031602 74 0 0.0 0.0 0.00 0.00 0.00 93 1019.5
20260901031056 75 0 0.0 0.0 0.00 0.00 0.00 93 1019.6
20260901030557 75 0 0.0 0.0 0.00 0.00 0.00 93 1019.6
20260901030105 75 0 0.0 0.0 0.00 0.00 0.00 93 1019.6
20260901025557 75 0 0.0 0.0 0.00 0.00 0.00 93 1019.6
20260901025057 75 0 0.0 0.0 0.00 0.00 0.00 92 1019.6
20260901024604 75 0 0.0 0.0 0.00 0.00 0.00 92 1019.6
20260901024056 75 0 0.0 0.0 0.00 0.00 0.00 92 1019.6
20260901023556 75 0 0.0 0.0 0.00 0.00 0.00 92 1019.6
20260901023114 75 0 0.0 0.0 0.00 0.00 0.00 92 1019.5
20260901022556 75 0 0.0 0.0 0.00 0.00 0.00 92 1019.4
20260901022056 75 0 0.0 0.0 0.00 0.00 0.00 92 1019.4
20260901021614 76 0 0.0 0.0 0.00 0.00 0.00 92 1019.5
20260901021100 76 0 0.0 0.0 0.00 0.00 0.00 91 1019.4
20260901020557 76 0 0.0 0.0 0.00 0.00 0.00 91 1019.3
20260901020109 76 0 0.0 0.0 0.00 0.00 0.00 91 1019.3
20260901015556 76 0 0.0 0.0 0.00 0.00 0.00 91 1019.2
20260901015125 76 0 0.0 0.0 0.00 0.00 0.00 91 1019.2
20260901014558 76 0 0.0 0.0 0.00 0.00 0.00 91 1019.1
20260901014057 76 0 0.0 0.0 0.00 0.00 0.00 91 1019.0
20260901013558 76 0 0.0 0.0 0.00 0.00 0.00 91 1019.1
20260901013120 76 0 0.0 0.0 0.00 0.00 0.00 91 1019.0
20260901012556 76 0 0.0 0.0 0.00 0.00 0.00 91 1019.0
20260901012056 77 0 0.0 0.0 0.00 0.00 0.00 91 1018.9
20260901011605 77 0 0.0 0.0 0.00 0.00 0.00 91 1018.9
20260901011057 77 0 0.0 0.0 0.00 0.00 0.00 90 1018.9
20260901010557 77 0 0.0 0.0 0.00 0.00 0.00 90 1018.7
20260901010058 77 0 0.0 0.0 0.00 0.00 0.00 90 1018.7
20260901005558 78 0 0.0 0.0 0.00 0.00 0.00 90 1018.7
20260901005058 78 0 0.0 0.0 0.00 0.00 0.00 90 1018.5
20260901004605 78 0 0.0 0.0 0.00 0.00 0.00 89 1018.5
20260901004056 78 0 0.0 0.0 0.00 0.00 0.00 89 1018.4
20260901003557 78 0 0.0 0.0 0.00 0.00 0.00 89 1018.3
20260901003101 79 0 0.0 0.0 0.00 0.00 0.00 89 1018.2
20260901002557 79 0 0.0 0.0 0.00 0.00 0.00 88 1018.3
20260901002056 79 0 0.0 0.0 0.00 0.00 0.00 88 1018.4
20260901001606 80 0 0.0 0.0 0.00 0.00 0.00 88 1018.4
20260901001058 80 0 0.0 0.0 0.00 0.00 0.00 88 1018.5
20260901000556 80 0 0.0 0.0 0.00 0.00 0.00 87 1018.5
20260901000103 80 0 0.0 0.0 0.00 0.00 0.00 86 1018.4
20260831235556 81 0 0.0 0.0 0.00 0.00 0.00 86 1018.4
20260831235100 81 0 0.0 0.0 0.00 0.00 0.00 85 1018.5
20260831234600 82 0 0.0 0.0 0.00 0.00 0.00 84 1018.6
20260831234057 82 0 0.0 0.0 0.00 0.00 0.00 81 1018.5
20260831233557 83 0 0.0 1.0 0.00 0.00 0.00 81 1018.6
20260831233106 83 0 0.0 1.0 0.00 0.00 0.00 80 1018.6
20260831232556 84 0 0.0 1.0 0.00 0.00 0.00 79 1018.6
20260831232057 85 0 0.0 2.0 0.00 0.00 0.00 76 1018.6
20260831231623 86 0 0.0 2.0 0.00 0.00 0.00 70 1018.5
20260831231056 87 197 0.0 2.0 0.00 0.00 0.00 68 1018.6
20260831230556 87 197 1.0 2.0 0.00 0.00 0.00 69 1018.6
20260831225556 87 197 1.0 2.0 0.00 0.00 0.00 69 1018.7
20260831225055 87 197 0.0 2.0 0.00 0.00 0.00 69 1018.6
20260831224642 88 197 0.0 2.0 0.00 0.00 0.00 67 1018.7
20260831224056 87 197 1.0 2.0 0.00 0.00 0.00 70 1018.8
20260831223557 87 197 0.0 1.0 0.00 0.00 0.00 71 1019.0
20260831223102 88 0 0.0 2.0 0.00 0.00 0.00 69 1019.0
20260831222556 88 0 0.0 2.0 0.00 0.00 0.00 67 1019.0
20260831222058 88 197 1.0 2.0 0.00 0.00 0.00 64 1019.0
20260831221615 88 219 0.0 2.0 0.00 0.00 0.00 66 1018.9
20260831221056 88 219 1.0 2.0 0.00 0.00 0.00 65 1019.1
20260831220556 88 193 0.0 2.0 0.00 0.00 0.00 67 1018.9
20260831220100 88 173 0.0 2.0 0.00 0.00 0.00 67 1019.0
20260831215557 88 185 0.0 3.0 0.00 0.00 0.00 65 1019.1
20260831215058 88 0 1.0 3.0 0.00 0.00 0.00 65 1019.1
20260831214606 89 148 0.0 3.0 0.00 0.00 0.00 62 1019.1
20260831214058 88 0 0.0 3.0 0.00 0.00 0.00 67 1019.2
20260831213556 88 0 1.0 3.0 0.00 0.00 0.00 66 1019.1
20260831213101 89 0 0.0 2.0 0.00 0.00 0.00 64 1019.0
20260831212557 89 245 0.0 2.0 0.00 0.00 0.00 63 1019.1
20260831212058 89 277 1.0 3.0 0.00 0.00 0.00 60 1019.1
20260831211608 89 192 1.0 3.0 0.00 0.00 0.00 64 1019.1
20260831211057 89 0 1.0 3.0 0.00 0.00 0.00 62 1019.2
20260831210556 89 184 0.0 3.0 0.00 0.00 0.00 63 1019.2
20260831210107 89 0 1.0 2.0 0.00 0.00 0.00 60 1019.3
20260831205556 89 0 0.0 2.0 0.00 0.00 0.00 62 1019.2
20260831205056 89 0 0.0 4.0 0.00 0.00 0.00 62 1019.2
20260831204606 89 208 1.0 4.0 0.00 0.00 0.00 61 1019.3
20260831204059 90 0 1.0 3.0 0.00 0.00 0.00 62 1019.3
20260831203556 89 194 0.0 3.0 0.00 0.00 0.00 67 1019.4
20260831203101 89 222 1.0 3.0 0.00 0.00 0.00 63 1019.4
20260831202556 89 0 1.0 3.0 0.00 0.00 0.00 58 1019.5
20260831202057 90 228 1.0 3.0 0.00 0.00 0.00 61 1019.6
20260831201601 89 196 1.0 3.0 0.00 0.00 0.00 61 1019.6
20260831201057 89 0 0.0 2.0 0.00 0.00 0.00 64 1019.7
20260831200557 90 0 0.0 2.0 0.00 0.00 0.00 60 1019.7
20260831200108 89 182 0.0 2.0 0.00 0.00 0.00 62 1019.8
20260831195559 90 182 0.0 2.0 0.00 0.00 0.00 61 1019.8
20260831195056 90 182 0.0 2.0 0.00 0.00 0.00 58 1020.0
20260831194618 89 0 0.0 3.0 0.00 0.00 0.00 60 1019.9
20260831194057 89 84 0.0 3.0 0.00 0.00 0.00 62 1020.0
20260831193557 89 0 0.0 4.0 0.00 0.00 0.00 60 1020.1
20260831193103 90 26 0.0 4.0 0.00 0.00 0.00 61 1020.0
20260831192556 90 0 0.0 4.0 0.00 0.00 0.00 58 1020.1
20260831192057 90 0 0.0 4.0 0.00 0.00 0.00 60 1020.1
20260831191556 90 0 1.0 4.0 0.00 0.00 0.00 60 1020.3
20260831191058 89 0 0.0 3.0 0.00 0.00 0.00 64 1020.3
20260831190559 89 0 0.0 0.0 0.00 0.00 0.00 61 1020.2
20260831190135 89 0 0.0 0.0 0.00 0.00 0.00 61 1020.3
20260831185557 89 0 0.0 0.0 0.00 0.00 0.00 66 1020.4
20260831185056 88 0 0.0 0.0 0.00 0.00 0.00 65 1020.5
20260831184603 88 0 0.0 0.0 0.00 0.00 0.00 66 1020.6
20260831184056 88 0 0.0 0.0 0.00 0.00 0.00 65 1020.7
20260831183557 88 0 0.0 0.0 0.00 0.00 0.00 65 1020.7
20260831183102 88 0 0.0 0.0 0.00 0.00 0.00 67 1020.8
20260831182557 88 0 0.0 0.0 0.00 0.00 0.00 65 1020.8
20260831182101 88 0 0.0 0.0 0.00 0.00 0.00 68 1020.9
20260831181609 88 0 0.0 0.0 0.00 0.00 0.00 69 1020.9
20260831181057 88 0 0.0 0.0 0.00 0.00 0.00 69 1020.9
20260831180556 88 0 0.0 0.0 0.00 0.00 0.00 73 1020.9
20260831180105 88 0 0.0 0.0 0.00 0.00 0.00 70 1021.0
20260831175556 87 0 0.0 0.0 0.00 0.00 0.00 69 1021.1
20260831175056 85 0 0.0 0.0 0.00 0.00 0.00 72 1021.1
20260831174605 85 0 0.0 0.0 0.00 0.00 0.00 73 1021.2
20260831174057 85 0 0.0 0.0 0.00 0.00 0.00 74 1021.2
20260831173559 87 0 0.0 0.0 0.00 0.00 0.00 71 1021.3
20260831173104 88 0 0.0 0.0 0.00 0.00 0.00 68 1021.3
20260831172600 87 0 0.0 0.0 0.00 0.00 0.00 71 1021.4
20260831172056 86 0 0.0 0.0 0.00 0.00 0.00 74 1021.4
20260831171603 86 0 0.0 0.0 0.00 0.00 0.00 72 1021.3
20260831171056 85 0 0.0 0.0 0.00 0.00 0.00 75 1021.3
20260831170556 85 0 0.0 0.0 0.00 0.00 0.00 71 1021.4
20260831170106 86 0 0.0 0.0 0.00 0.00 0.00 71 1021.4
20260831165556 85 0 0.0 0.0 0.00 0.00 0.00 72 1021.5
20260831165056 85 0 0.0 0.0 0.00 0.00 0.00 74 1021.7
20260831164623 85 0 0.0 0.0 0.00 0.00 0.00 76 1021.8
20260831164056 86 0 0.0 0.0 0.00 0.00 0.00 74 1021.8
20260831163556 85 0 0.0 0.0 0.00 0.00 0.00 73 1021.6
20260831163104 84 0 0.0 0.0 0.00 0.00 0.00 78 1021.6
20260831162557 84 0 0.0 0.0 0.00 0.00 0.00 76 1021.7
20260831162057 84 0 0.0 0.0 0.00 0.00 0.00 74 1021.8
20260831161604 86 0 0.0 0.0 0.00 0.00 0.00 73 1021.9
20260831161101 85 0 0.0 0.0 0.00 0.00 0.00 75 1021.9
20260831160556 85 0 0.0 0.0 0.00 0.00 0.00 76 1021.9
20260831160105 84 0 0.0 0.0 0.00 0.00 0.00 75 1022.0
20260831155557 84 0 0.0 0.0 0.00 0.00 0.00 75 1022.1
20260831155058 84 0 0.0 0.0 0.00 0.00 0.00 76 1021.9
20260831154624 84 0 0.0 0.0 0.00 0.00 0.00 76 1021.8
20260831154056 84 0 0.0 0.0 0.00 0.00 0.00 77 1021.9
20260831153556 84 0 0.0 0.0 0.00 0.00 0.00 76 1022.0
20260831153100 84 0 0.0 0.0 0.00 0.00 0.00 78 1021.9
20260831152554 83 0 0.0 0.0 0.00 0.00 0.00 80 1021.9
20260831152054 83 0 0.0 0.0 0.00 0.00 0.00 79 1021.9
20260831151614 83 0 0.0 0.0 0.00 0.00 0.00 81 1022.0
20260831151059 83 0 0.0 0.0 0.00 0.00 0.00 82 1022.0
20260831150554 82 0 0.0 0.0 0.00 0.00 0.00 81 1022.1
20260831150106 82 0 0.0 0.0 0.00 0.00 0.00 81 1021.9
20260831145554 81 0 0.0 0.0 0.00 0.00 0.00 81 1022.0
20260831145054 81 0 0.0 0.0 0.00 0.00 0.00 82 1022.1
20260831144610 81 0 0.0 0.0 0.00 0.00 0.00 82 1022.2
20260831144054 81 0 0.0 0.0 0.00 0.00 0.00 82 1022.2
20260831143554 81 0 0.0 0.0 0.00 0.00 0.00 82 1022.1
20260831143125 81 0 0.0 0.0 0.00 0.00 0.00 83 1022.1
20260831142557 81 0 0.0 0.0 0.00 0.00 0.00 84 1022.0
20260831142057 81 0 0.0 0.0 0.00 0.00 0.00 84 1022.0
20260831141559 81 0 0.0 0.0 0.00 0.00 0.00 83 1022.1
20260831141054 80 0 0.0 0.0 0.00 0.00 0.00 84 1021.9
20260831140555 80 0 0.0 0.0 0.00 0.00 0.00 86 1021.9
20260831140106 80 0 0.0 0.0 0.00 0.00 0.00 86 1022.0
20260831135554 80 0 0.0 0.0 0.00 0.00 0.00 86 1021.9
20260831135055 79 0 0.0 0.0 0.00 0.00 0.00 87 1022.0
20260831134606 79 0 0.0 0.0 0.00 0.00 0.00 89 1022.0
20260831134057 79 0 0.0 0.0 0.00 0.00 0.00 90 1022.0
20260831133553 78 0 0.0 0.0 0.00 0.00 0.00 91 1022.0
20260831133101 77 0 0.0 0.0 0.00 0.00 0.00 94 1022.0
20260831132558 76 0 0.0 0.0 0.00 0.00 0.00 95 1021.9
20260831132056 76 0 0.0 0.0 0.00 0.00 0.00 96 1022.0
20260831131609 75 0 0.0 0.0 0.00 0.00 0.00 97 1022.0
20260831131055 75 0 0.0 0.0 0.00 0.00 0.00 97 1021.9
20260831130553 75 0 0.0 0.0 0.00 0.00 0.00 98 1021.9
20260831130135 74 0 0.0 0.0 0.00 0.00 0.00 98 1021.8
20260831125554 73 0 0.0 0.0 0.00 0.00 0.00 98 1021.7
20260831125056 73 0 0.0 0.0 0.00 0.00 0.00 98 1021.6
20260831124607 72 0 0.0 0.0 0.00 0.00 0.00 98 1021.6
20260831124055 72 0 0.0 0.0 0.00 0.00 0.00 98 1021.6
20260831123554 72 0 0.0 0.0 0.00 0.00 0.00 98 1021.6
20260831123105 72 0 0.0 0.0 0.00 0.00 0.00 98 1021.5
20260831122554 71 0 0.0 0.0 0.00 0.00 0.00 98 1021.5
20260831122054 71 0 0.0 0.0 0.00 0.00 0.00 98 1021.4
20260831121607 71 0 0.0 0.0 0.00 0.00 0.00 98 1021.3
20260831121058 71 0 0.0 0.0 0.00 0.00 0.00 98 1021.3
20260831120555 71 0 0.0 0.0 0.00 0.00 0.00 98 1021.1
20260831120112 71 0 0.0 0.0 0.00 0.00 0.00 98 1021.1
20260831115554 71 0 0.0 0.0 0.00 0.00 0.00 98 1021.1
20260831115054 71 0 0.0 0.0 0.00 0.00 0.00 98 1021.0
20260831114607 71 0 0.0 0.0 0.00 0.00 0.00 97 1020.9
20260831114054 71 0 0.0 0.0 0.00 0.00 0.00 98 1020.9
20260831113554 71 0 0.0 0.0 0.00 0.00 0.00 97 1020.6
20260831113104 71 0 0.0 0.0 0.00 0.00 0.00 98 1020.5
20260831112555 71 0 0.0 0.0 0.00 0.00 0.00 98 1020.5
20260831112054 70 0 0.0 0.0 0.00 0.00 0.00 97 1020.5
20260831111559 71 0 0.0 0.0 0.00 0.00 0.00 97 1020.4
20260831111054 70 0 0.0 0.0 0.00 0.00 0.00 97 1020.3
20260831110554 71 0 0.0 0.0 0.00 0.00 0.00 97 1020.4
20260831110108 71 0 0.0 0.0 0.00 0.00 0.00 98 1020.4
20260831105554 71 0 0.0 0.0 0.00 0.00 0.00 98 1020.3
20260831105055 71 0 0.0 0.0 0.00 0.00 0.00 98 1020.3
20260831104602 71 0 0.0 0.0 0.00 0.00 0.00 97 1020.2
20260831104055 71 0 0.0 0.0 0.00 0.00 0.00 97 1020.1
20260831103557 71 0 0.0 0.0 0.00 0.00 0.00 97 1020.1
20260831103106 71 0 0.0 0.0 0.00 0.00 0.00 97 1020.0
20260831102556 71 0 0.0 0.0 0.00 0.00 0.00 97 1020.0
20260831102054 71 0 0.0 0.0 0.00 0.00 0.00 97 1019.9
20260831101604 71 0 0.0 0.0 0.00 0.00 0.00 97 1019.9
20260831101055 71 0 0.0 0.0 0.00 0.00 0.00 97 1019.9
20260831100553 71 0 0.0 0.0 0.00 0.00 0.00 97 1019.8
20260831100110 71 0 0.0 0.0 0.00 0.00 0.00 97 1019.8
20260831095554 71 0 0.0 0.0 0.00 0.00 0.00 97 1019.7
20260831095056 71 0 0.0 0.0 0.00 0.00 0.00 97 1019.8
20260831094634 71 0 0.0 0.0 0.00 0.00 0.00 97 1019.7
20260831094054 71 0 0.0 0.0 0.00 0.00 0.00 97 1019.6
20260831093554 71 0 0.0 0.0 0.00 0.00 0.00 97 1019.6
20260831093102 71 0 0.0 0.0 0.00 0.00 0.00 97 1019.6
20260831092555 71 0 0.0 0.0 0.00 0.00 0.00 97 1019.5
20260831092055 71 0 0.0 0.0 0.00 0.00 0.00 97 1019.5
20260831091617 71 0 0.0 0.0 0.00 0.00 0.00 97 1019.7
20260831091055 71 0 0.0 0.0 0.00 0.00 0.00 97 1019.5
20260831090558 71 0 0.0 0.0 0.00 0.00 0.00 97 1019.5
20260831090059 71 0 0.0 0.0 0.00 0.00 0.00 97 1019.5
20260831085557 71 0 0.0 0.0 0.00 0.00 0.00 97 1019.4
20260831085057 71 0 0.0 0.0 0.00 0.00 0.00 97 1019.4
20260831084612 71 0 0.0 0.0 0.00 0.00 0.00 97 1019.4
20260831084056 71 0 0.0 0.0 0.00 0.00 0.00 97 1019.6
20260831083556 71 0 0.0 0.0 0.00 0.00 0.00 97 1019.6
20260831083056 71 0 0.0 1.0 0.00 0.00 0.00 97 1019.5
20260831082556 71 0 0.0 1.0 0.00 0.00 0.00 97 1019.5
20260831082056 71 0 0.0 0.0 0.00 0.00 0.00 97 1019.3
20260831081612 71 0 0.0 0.0 0.00 0.00 0.00 97 1019.4
20260831081056 71 0 0.0 0.0 0.00 0.00 0.00 97 1019.4
20260831080556 71 0 0.0 0.0 0.00 0.00 0.00 97 1019.4
20260831080107 71 0 0.0 0.0 0.00 0.00 0.00 97 1019.4
20260831075558 71 0 0.0 0.0 0.00 0.00 0.00 97 1019.4
20260831075054 71 0 0.0 0.0 0.00 0.00 0.00 97 1019.4
20260831074610 71 0 0.0 0.0 0.00 0.00 0.00 97 1019.4
20260831074055 71 0 0.0 0.0 0.00 0.00 0.00 97 1019.4
20260831073554 71 0 0.0 0.0 0.00 0.00 0.00 96 1019.4
20260831073107 72 0 0.0 0.0 0.00 0.00 0.00 96 1019.5
20260831072553 72 0 0.0 0.0 0.00 0.00 0.00 96 1019.5
20260831072054 72 0 0.0 0.0 0.00 0.00 0.00 96 1019.5
20260831071615 72 0 0.0 0.0 0.00 0.00 0.00 96 1019.5
20260831071057 72 0 0.0 0.0 0.00 0.00 0.00 96 1019.4
20260831070553 72 0 0.0 0.0 0.00 0.00 0.00 96 1019.4
20260831070107 72 0 0.0 0.0 0.00 0.00 0.00 96 1019.4
20260831065557 72 0 0.0 0.0 0.00 0.00 0.00 96 1019.4
20260831065053 72 0 0.0 0.0 0.00 0.00 0.00 96 1019.4
20260831064614 72 0 0.0 0.0 0.00 0.00 0.00 96 1019.3
20260831064053 72 0 0.0 0.0 0.00 0.00 0.00 96 1019.3
20260831063553 72 0 0.0 0.0 0.00 0.00 0.00 96 1019.3
20260831063119 72 0 0.0 0.0 0.00 0.00 0.00 96 1019.4
20260831062556 72 0 0.0 0.0 0.00 0.00 0.00 96 1019.6
20260831062054 72 0 0.0 0.0 0.00 0.00 0.00 96 1019.6
20260831061605 72 0 0.0 0.0 0.00 0.00 0.00 96 1019.6
20260831061057 72 0 0.0 0.0 0.00 0.00 0.00 96 1019.7
20260831060554 72 0 0.0 0.0 0.00 0.00 0.00 96 1019.7
20260831060120 72 0 0.0 0.0 0.00 0.00 0.00 96 1019.7
20260831055554 72 0 0.0 0.0 0.00 0.00 0.00 96 1019.7
20260831055056 72 0 0.0 0.0 0.00 0.00 0.00 96 1019.7
20260831054605 72 0 0.0 0.0 0.00 0.00 0.00 96 1019.6
20260831054054 72 0 0.0 0.0 0.00 0.00 0.00 95 1019.6
20260831053554 72 0 0.0 0.0 0.00 0.00 0.00 95 1019.5
20260831053100 72 0 0.0 0.0 0.00 0.00 0.00 95 1019.5
20260831052554 72 0 0.0 0.0 0.00 0.00 0.00 95 1019.5